Time,TemperatureF,DewpointF,PressureIn,WindDirection,WindDirectionDegrees,WindSpeedMPH,WindSpeedGustMPH,Humidity,HourlyPrecipIn,Conditions,Clouds,dailyrainin,SoftwareType,DateUTC
2013-09-15 00:10:00,69.0,52.0,29.90,SE,124,0.0,4.0,56,0.00,,,0.00,weatherlink.com 1.10,2013-09-15 05:10:00,
2013-09-15 00:25:00,68.9,52.0,29.90,SSE,156,0.0,7.0,56,0.00,,,0.00,weatherlink.com 1.10,2013-09-15 05:25:00,
2013-09-15 00:40:00,69.0,52.0,29.90,South,187,1.0,5.0,56,0.00,,,0.00,weatherlink.com 1.10,2013-09-15 05:40:00,
2013-09-15 00:55:00,68.7,53.0,29.90,SE,146,0.0,4.0,57,0.00,,,0.00,weatherlink.com 1.10,2013-09-15 05:55:00,
2013-09-15 01:10:00,68.6,53.0,29.90,SE,127,2.0,7.0,57,0.00,,,0.00,weatherlink.com 1.10,2013-09-15 06:10:00,
2013-09-15 01:25:00,68.8,53.0,29.90,SW,229,3.0,7.0,57,0.00,,,0.00,weatherlink.com 1.10,2013-09-15 06:25:00,
2013-09-15 01:40:00,68.6,53.0,29.90,South,174,1.0,6.0,57,0.00,,,0.00,weatherlink.com 1.10,2013-09-15 06:40:00,
2013-09-15 01:55:00,68.3,53.0,29.90,SSW,212,1.0,6.0,58,0.00,,,0.00,weatherlink.com 1.10,2013-09-15 06:55:00,
2013-09-15 02:10:00,68.1,53.0,29.90,SSW,212,3.0,6.0,58,0.00,,,0.00,weatherlink.com 1.10,2013-09-15 07:10:00,
2013-09-15 02:25:00,67.7,53.0,29.90,SSW,196,2.0,5.0,59,0.00,,,0.00,weatherlink.com 1.10,2013-09-15 07:25:00,
2013-09-15 02:40:00,67.5,53.0,29.89,South,190,3.0,6.0,60,0.00,,,0.00,weatherlink.com 1.10,2013-09-15 07:40:00,
2013-09-15 02:55:00,67.1,53.0,29.89,South,177,2.0,4.0,60,0.00,,,0.00,weatherlink.com 1.10,2013-09-15 07:55:00,
2013-09-15 03:10:00,66.8,53.0,29.89,SE,146,0.0,3.0,62,0.00,,,0.00,weatherlink.com 1.10,2013-09-15 08:10:00,
2013-09-15 03:25:00,66.2,53.0,29.88,South,191,0.0,3.0,63,0.00,,,0.00,weatherlink.com 1.10,2013-09-15 08:25:00,
2013-09-15 03:40:00,65.9,53.0,29.88,SE,124,0.0,6.0,64,0.00,,,0.00,weatherlink.com 1.10,2013-09-15 08:40:00,
2013-09-15 03:55:00,65.7,53.0,29.87,South,190,2.0,4.0,64,0.00,,,0.00,weatherlink.com 1.10,2013-09-15 08:55:00,
2013-09-15 04:10:00,65.5,53.0,29.88,SSE,153,0.0,3.0,65,0.00,,,0.00,weatherlink.com 1.10,2013-09-15 09:10:00,
2013-09-15 04:25:00,65.2,53.0,29.88,South,169,0.0,3.0,66,0.00,,,0.00,weatherlink.com 1.10,2013-09-15 09:25:00,
2013-09-15 04:40:00,65.0,54.0,29.88,South,172,0.0,3.0,67,0.00,,,0.00,weatherlink.com 1.10,2013-09-15 09:40:00,
2013-09-15 04:55:00,64.6,53.0,29.88,SE,125,0.0,2.0,67,0.00,,,0.00,weatherlink.com 1.10,2013-09-15 09:55:00,
2013-09-15 05:10:00,64.2,54.0,29.88,SSE,167,0.0,1.0,69,0.00,,,0.00,weatherlink.com 1.10,2013-09-15 10:10:00,
2013-09-15 05:25:00,64.1,54.0,29.88,South,169,0.0,3.0,69,0.00,,,0.00,weatherlink.com 1.10,2013-09-15 10:25:00,
2013-09-15 05:40:00,63.9,54.0,29.88,East,101,0.0,1.0,70,0.00,,,0.00,weatherlink.com 1.10,2013-09-15 10:40:00,
2013-09-15 05:55:00,64.6,54.0,29.88,SSE,159,0.0,3.0,69,0.00,,,0.00,weatherlink.com 1.10,2013-09-15 10:55:00,
2013-09-15 06:10:00,65.0,54.0,29.88,SSE,156,1.0,2.0,68,0.00,,,0.00,weatherlink.com 1.10,2013-09-15 11:10:00,
2013-09-15 06:25:00,65.4,54.0,29.88,ESE,115,0.0,4.0,67,0.00,,,0.00,weatherlink.com 1.10,2013-09-15 11:25:00,
2013-09-15 06:40:00,65.9,54.0,29.89,SSE,149,0.0,4.0,65,0.00,,,0.00,weatherlink.com 1.10,2013-09-15 11:40:00,
2013-09-15 06:55:00,66.2,54.0,29.89,SSE,155,0.0,5.0,65,0.00,,,0.00,weatherlink.com 1.10,2013-09-15 11:55:00,
2013-09-15 07:10:00,65.9,54.0,29.88,SE,136,1.0,4.0,66,0.00,,,0.00,weatherlink.com 1.10,2013-09-15 12:10:00,
2013-09-15 07:25:00,65.5,54.0,29.89,SE,136,0.0,4.0,67,0.00,,,0.00,weatherlink.com 1.10,2013-09-15 12:25:00,
2013-09-15 07:40:00,65.6,54.0,29.89,SSW,206,0.0,4.0,67,0.00,,,0.00,weatherlink.com 1.10,2013-09-15 12:40:00,
2013-09-15 07:55:00,65.8,54.0,29.89,South,180,0.0,5.0,67,0.00,,,0.00,weatherlink.com 1.10,2013-09-15 12:55:00,
2013-09-15 08:10:00,66.5,55.0,29.89,East,96,2.0,4.0,66,0.00,,,0.00,weatherlink.com 1.10,2013-09-15 13:10:00,
2013-09-15 08:25:00,67.5,55.0,29.88,SSW,201,0.0,6.0,65,0.00,,,0.00,weatherlink.com 1.10,2013-09-15 13:25:00,
2013-09-15 08:40:00,68.7,56.0,29.89,ESE,114,6.0,10.0,64,0.00,,,0.00,weatherlink.com 1.10,2013-09-15 13:40:00,
2013-09-15 08:55:00,69.5,56.0,29.89,ESE,115,2.0,7.0,62,0.00,,,0.00,weatherlink.com 1.10,2013-09-15 13:55:00,
2013-09-15 09:10:00,70.3,57.0,29.89,ESE,105,0.0,6.0,62,0.00,,,0.00,weatherlink.com 1.10,2013-09-15 14:10:00,
2013-09-15 09:25:00,71.1,56.0,29.90,ESE,110,3.0,7.0,60,0.00,,,0.00,weatherlink.com 1.10,2013-09-15 14:25:00,
2013-09-15 09:41:00,72.4,57.0,29.90,ENE,58,2.0,9.0,59,0.00,,,0.00,weatherlink.com 1.10,2013-09-15 14:41:00,
2013-09-15 09:56:00,73.7,58.0,29.90,ESE,110,1.0,7.0,58,0.00,,,0.00,weatherlink.com 1.10,2013-09-15 14:56:00,
2013-09-15 10:11:00,74.4,58.0,29.91,SE,136,1.0,5.0,57,0.00,,,0.00,weatherlink.com 1.10,2013-09-15 15:11:00,
2013-09-15 10:26:00,74.9,59.0,29.93,ESE,105,0.0,4.0,58,0.00,,,0.00,weatherlink.com 1.10,2013-09-15 15:26:00,
2013-09-15 10:41:00,76.6,60.0,29.94,NW,313,0.0,1.0,57,0.00,,,0.00,weatherlink.com 1.10,2013-09-15 15:41:00,
2013-09-15 10:56:00,76.1,61.0,29.95,WSW,239,0.0,3.0,59,0.00,,,0.00,weatherlink.com 1.10,2013-09-15 15:56:00,
2013-09-15 11:11:00,74.2,61.0,29.95,NNW,327,0.0,1.0,64,0.00,,,0.00,weatherlink.com 1.10,2013-09-15 16:11:00,
2013-09-15 11:26:00,71.2,62.0,29.94,SE,141,0.0,2.0,72,0.00,,,0.00,weatherlink.com 1.10,2013-09-15 16:26:00,
2013-09-15 11:41:00,71.2,63.0,29.94,South,191,0.0,1.0,74,0.00,,,0.00,weatherlink.com 1.10,2013-09-15 16:41:00,
2013-09-15 11:56:00,72.0,64.0,29.95,SSE,168,0.0,1.0,75,0.00,,,0.00,weatherlink.com 1.10,2013-09-15 16:56:00,
2013-09-15 12:11:00,71.0,63.0,29.94,SE,129,1.0,2.0,77,0.01,,,0.01,weatherlink.com 1.10,2013-09-15 17:11:00,
2013-09-15 12:26:00,71.9,64.0,29.94,ESE,117,0.0,3.0,77,0.01,,,0.01,weatherlink.com 1.10,2013-09-15 17:26:00,
2013-09-15 12:41:00,74.5,67.0,29.94,SSE,152,0.0,1.0,76,0.01,,,0.01,weatherlink.com 1.10,2013-09-15 17:41:00,
2013-09-15 12:56:00,75.5,65.0,29.93,SE,134,1.0,4.0,70,0.01,,,0.01,weatherlink.com 1.10,2013-09-15 17:56:00,
2013-09-15 13:11:00,78.1,66.0,29.93,NW,305,0.0,3.0,67,0.00,,,0.01,weatherlink.com 1.10,2013-09-15 18:11:00,
2013-09-15 13:26:00,80.0,66.0,29.93,SSE,149,4.0,5.0,62,0.00,,,0.01,weatherlink.com 1.10,2013-09-15 18:26:00,
2013-09-15 13:41:00,80.7,65.0,29.92,SE,127,3.0,5.0,60,0.00,,,0.01,weatherlink.com 1.10,2013-09-15 18:41:00,
2013-09-15 13:56:00,82.6,66.0,29.92,ESE,111,0.0,3.0,57,0.00,,,0.01,weatherlink.com 1.10,2013-09-15 18:56:00,
2013-09-15 14:11:00,82.8,66.0,29.91,ESE,110,0.0,3.0,57,0.00,,,0.01,weatherlink.com 1.10,2013-09-15 19:11:00,
2013-09-15 14:26:00,82.5,66.0,29.91,SE,127,0.0,3.0,58,0.00,,,0.01,weatherlink.com 1.10,2013-09-15 19:26:00,
2013-09-15 14:41:00,83.1,66.0,29.91,SE,135,0.0,4.0,57,0.00,,,0.01,weatherlink.com 1.10,2013-09-15 19:41:00,
2013-09-15 14:56:00,83.0,67.0,29.91,ESE,104,2.0,4.0,58,0.00,,,0.01,weatherlink.com 1.10,2013-09-15 19:56:00,
2013-09-15 15:11:00,84.7,67.0,29.91,SSE,150,0.0,2.0,56,0.00,,,0.01,weatherlink.com 1.10,2013-09-15 20:11:00,
2013-09-15 15:26:00,84.7,67.0,29.91,NNW,337,0.0,1.0,55,0.00,,,0.01,weatherlink.com 1.10,2013-09-15 20:26:00,
2013-09-15 15:41:00,84.7,67.0,29.91,South,183,0.0,2.0,55,0.00,,,0.01,weatherlink.com 1.10,2013-09-15 20:41:00,
2013-09-15 15:56:00,84.5,67.0,29.91,SSE,150,0.0,2.0,55,0.00,,,0.01,weatherlink.com 1.10,2013-09-15 20:56:00,
2013-09-15 16:11:00,83.9,67.0,29.91,SSE,147,0.0,1.0,57,0.00,,,0.01,weatherlink.com 1.10,2013-09-15 21:11:00,
2013-09-15 16:26:00,84.0,68.0,29.91,SE,146,0.0,0.0,58,0.00,,,0.01,weatherlink.com 1.10,2013-09-15 21:26:00,
2013-09-15 16:42:00,84.1,67.0,29.92,NW,314,1.0,3.0,56,0.00,,,0.01,weatherlink.com 1.10,2013-09-15 21:42:00,
2013-09-15 16:56:00,82.6,66.0,29.92,WNW,293,0.0,2.0,58,0.00,,,0.01,weatherlink.com 1.10,2013-09-15 21:56:00,
2013-09-15 17:11:00,82.0,67.0,29.92,NNE,13,0.0,3.0,60,0.00,,,0.01,weatherlink.com 1.10,2013-09-15 22:11:00,
2013-09-15 17:27:00,80.3,68.0,29.93,WNW,297,0.0,5.0,66,0.00,,,0.01,weatherlink.com 1.10,2013-09-15 22:27:00,
2013-09-15 17:41:00,79.3,68.0,29.93,South,169,0.0,4.0,68,0.00,,,0.01,weatherlink.com 1.10,2013-09-15 22:41:00,
2013-09-15 17:57:00,77.9,68.0,29.94,NNW,346,0.0,5.0,71,0.00,,,0.01,weatherlink.com 1.10,2013-09-15 22:57:00,
2013-09-15 18:12:00,75.9,67.0,29.95,NW,307,0.0,8.0,74,0.00,,,0.01,weatherlink.com 1.10,2013-09-15 23:12:00,
2013-09-15 18:27:00,74.9,67.0,29.96,West,263,0.0,4.0,76,0.00,,,0.01,weatherlink.com 1.10,2013-09-15 23:27:00,
2013-09-15 18:42:00,73.6,67.0,29.96,West,262,0.0,6.0,81,0.00,,,0.01,weatherlink.com 1.10,2013-09-15 23:42:00,
2013-09-15 18:58:00,71.6,67.0,29.97,South,188,0.0,5.0,86,0.00,,,0.01,weatherlink.com 1.10,2013-09-15 23:58:00,
2013-09-15 19:12:00,70.4,67.0,29.97,SE,142,0.0,4.0,88,0.00,,,0.01,weatherlink.com 1.10,2013-09-16 00:12:00,
2013-09-15 19:27:00,69.8,66.0,29.98,NNW,338,0.0,2.0,88,0.00,,,0.01,weatherlink.com 1.10,2013-09-16 00:27:00,
2013-09-15 19:42:00,69.4,66.0,29.99,South,191,0.0,2.0,88,0.00,,,0.01,weatherlink.com 1.10,2013-09-16 00:42:00,
2013-09-15 19:57:00,68.8,65.0,30.00,SSW,210,0.0,2.0,88,0.00,,,0.01,weatherlink.com 1.10,2013-09-16 00:57:00,
2013-09-15 20:12:00,68.6,65.0,30.00,North,8,0.0,2.0,88,0.00,,,0.01,weatherlink.com 1.10,2013-09-16 01:12:00,
2013-09-15 20:27:00,68.5,65.0,30.01,West,270,0.0,1.0,88,0.00,,,0.01,weatherlink.com 1.10,2013-09-16 01:27:00,
2013-09-15 20:42:00,68.4,65.0,30.01,NW,305,0.0,5.0,88,0.00,,,0.01,weatherlink.com 1.10,2013-09-16 01:42:00,
2013-09-15 20:57:00,68.5,65.0,30.02,NE,40,0.0,3.0,87,0.00,,,0.01,weatherlink.com 1.10,2013-09-16 01:57:00,
2013-09-15 21:12:00,68.5,65.0,30.03,NNE,21,0.0,4.0,87,0.00,,,0.01,weatherlink.com 1.10,2013-09-16 02:12:00,
2013-09-15 21:27:00,68.4,63.0,30.03,ESE,109,0.0,9.0,84,0.00,,,0.01,weatherlink.com 1.10,2013-09-16 02:27:00,
2013-09-15 21:42:00,68.1,63.0,30.03,ESE,112,0.0,4.0,83,0.00,,,0.01,weatherlink.com 1.10,2013-09-16 02:42:00,
2013-09-15 21:57:00,67.8,63.0,30.04,West,270,0.0,4.0,83,0.00,,,0.01,weatherlink.com 1.10,2013-09-16 02:57:00,
2013-09-15 22:12:00,67.7,62.0,30.04,NNW,327,0.0,7.0,83,0.00,,,0.01,weatherlink.com 1.10,2013-09-16 03:12:00,
2013-09-15 22:27:00,67.4,62.0,30.05,WSW,246,0.0,5.0,83,0.00,,,0.01,weatherlink.com 1.10,2013-09-16 03:27:00,
2013-09-15 22:42:00,67.1,62.0,30.05,SSW,211,0.0,3.0,83,0.00,,,0.01,weatherlink.com 1.10,2013-09-16 03:42:00,
2013-09-15 22:57:00,66.5,61.0,30.05,WNW,284,1.0,6.0,83,0.00,,,0.01,weatherlink.com 1.10,2013-09-16 03:57:00,
2013-09-15 23:12:00,66.1,61.0,30.05,SE,124,0.0,5.0,83,0.00,,,0.01,weatherlink.com 1.10,2013-09-16 04:12:00,
2013-09-15 23:27:00,65.5,61.0,30.06,WNW,291,0.0,3.0,84,0.00,,,0.01,weatherlink.com 1.10,2013-09-16 04:27:00,
2013-09-15 23:42:00,64.9,61.0,30.06,South,190,0.0,0.0,86,0.00,,,0.01,weatherlink.com 1.10,2013-09-16 04:42:00,
2013-09-15 23:57:00,64.9,61.0,30.08,NNE,26,0.0,4.0,87,0.01,,,0.02,weatherlink.com 1.10,2013-09-16 04:57:00,